Location: Strada George Coșbuc
(47.6577°N, 23.5639°E)
Time: 01:11:56
(UTC+03:00)

ISS - Pass Details

Date: 07 October 2017
Orbit: 401 x 408 km, 51.6° (Epoch: 17 October)

Event Time Altitude Azimuth Distance (km) Brightness Sun altitude
Rises 21:31:29 0° 293° (WNW) 2,329 1.3 -27.0°
Reaches altitude 10° 21:33:34 10° 293° (WNW) 1,468 0.0 -27.3°
Enters shadow 21:34:46 21° 291° (WNW) 987 -1.2 -27.5°
